Погода в Ниванкюле

Погода в Ниванкюле : погода сейчас, прогноз погоды и архив. Всё, что Вы хотите узнать о погоде в Ниванкюле!

Поиск расширенной информации на нашем сайте:

Другие новости

Новости СМИ2

Главная страница сайта

Новости сайта

03.07.2017

Напоминаем, что на нашем специализированном сайте Метеоцентр.Азия вы можете получить высокодетализированные автоматические прогнозы погоды по пунктам России, СНГ и мира в авиационном формате (включающие направление и скорость ветра, видимость, явления погоды, количество и форму облачности, нижнюю и верхнюю границу облачности).


Погода в Ниванкюле - сегодня

Время (UTC), дата Ветер
(°,м/с) 
Видим.   Явления Облачность Т
(°С)
Тd
(°С)
f(%) Тe
(°С)
Pmin
(гПа)
dP
(гПа)
Po
(мм)
O2
(г/м3)
Тmin Tmax R s Состояние
почвы
00 17.07.18 300 (СЗ) 1-2  н/о    н/о 
+11.5 +10.2 92 +14  1020.9  0.9  757  291           
09 17.07.18 190 (Ю) 2-5  н/о    н/о 
+27 +13.2 43 +32  1020.4  -0.5  758  275           
12 17.07.18 180 (Ю) 2-4  н/о    н/о 
+29.2 +12 35 +33  1019.4  -0.9  757  273           
15 17.07.18 200 (Ю) 1-4  н/о    н/о 
+29.7 +10.7 31 +32  1018.5  -0.9  756  273           
21 17.07.18 200 (Ю) 1-4  н/о    н/о 
+23.1 +14.2 57 +30  1020.1  1.3  757  278           
00 18.07.18 250 (З) 1-3  н/о    н/о 
+19.7 +14.4 71 +28  1021.4  1.2  758  282           
09 18.07.18 190 (Ю) 2-4  н/о    н/о 
+29 +14.9 42 +37  1021  -0.4  758  273           
12 18.07.18 190 (Ю) 2-4  н/о    н/о 
+31.6 +12.4 31 +36  1019.9  -1  757  271           
15 18.07.18 200 (Ю) 1-4  н/о    н/о 
+31.4 +11.6 30 +35  1019.1  -0.8  757  271           
21 18.07.18 250 (З) 1-2  н/о    н/о 
+21.4 +12.3 56 +26  1019.9  0.9  757  281           
00 19.07.18 260 (З) 1-3  н/о    н/о 
+18.5 +12.7 69 +25  1020.9  0.9  758  283           
09 19.07.18 200 (Ю) 2-5  н/о    н/о 
+27.8 +11.2 36 +30  1020.2  -0.6  757  275           
12 19.07.18 200 (Ю) 2-6  н/о    н/о 
+30.4 +10.5 29 +32  1018.9  -1.1  757  272           
15 19.07.18 210 (ЮЗ) 2-5  н/о    н/о 
+30.1 +8.9 27 +30  1017.9  -1.1  756  273           
21 19.07.18 300 (СЗ) 1-2  н/о    н/о 
+19.1 +13.4 70 +27  1019.5  1.1  757  282           
00 20.07.18 270 (З) 3-6  н/о    н/о 
+21 +12.2 57 +25  1020.2  0.7  757  281           
09 20.07.18 180 (Ю) 3-7  н/о    н/о 
+28.8 +9.9 31 +30  1017.4  -1.6  755  274           
15 20.07.18 170 (Ю) 3-6  н/о    н/о 
+27.4 +7.5 28 +27  1014.9  753  275           
21 20.07.18 260 (З) 2-5  н/о    н/о 
+20.8 +10.2 51 +22  1014.6  0.1  753  280           
00 21.07.18 250 (З) 1-4  н/о    н/о 
+19.1 +11.3 61 +24  1014.6  753  281           
09 21.07.18 200 (Ю) 2-4  н/о    н/о 
+27.8 +11.7 37 +31  1011.8  -0.9  751  273           
12 21.07.18 290 (З) 1-1  н/о    н/о 
+19.9 +17.5 86 +34  1012.3  0.3  751  278           
15 21.07.18 030 (СВ) 1-2  н/о    н/о 
+21.3 +16.7 75 +33  1010.7  -1.6  750  277           
21 21.07.18 160 (Ю) 2-4  н/о    н/о 
+22.1 +14.6 62 +30  1008.9  -0.9  749  276           
15 22.07.18 170 (Ю) 1-3  н/о    н/о 
+21.4 +16.8 75 +34  1003.8  -0.7  745  275           
Время (UTC), дата Ветер
(°,м/с) 
Видим.   Явления Облачность Т
(°С)
Тd
(°С)
f(%) Тe
(°С)
Pmin
(гПа)
dP
(гПа)
Po
(мм)
O2
(г/м3)
Тmin Tmax R s Состояние
почвы

Для получения пояснительной информации подведите курсор к названию столбца.

ПОГОДА в Ниванкюле - архив

Всё, что Вы хотите узнать о погоде в Ниванкюле - удобно и подробно!

Выберите нужную дату (начиная с 1 января 2015* года) и нажмите кнопку "Найти".
Будут отображены архивные сводки погоды по пункту Ниванкюль, начиная с указанной даты.


Отображать данные в формате CSV (для использования в таблицах Excel)


Внимание! Наш архив погоды предназначен исключительно для личного некоммерческого использования в познавательных целях. Если Вам необходимы официальные справки о состоянии погоды (для производственных, юридических, коммерческих и т.п. целей), обращайтесь в органы Росгидромета.

*Примечание: данная дата относится к архиву по метеостанциям СССР (Россия, СНГ, Балтия).
Архив по метеостанциям Зарубежной Европы и Азии (кроме Китая) хранится 10 дней, по другим регионам земного шара (Китай, Африка, Америка, Австралия, Океания) - 1 день.

Ниванкюль - район местоположения метеостанции


Название, широта, долгота, высота метеостанции:
Ниванкюль 68.4°ш. 30.8°д. 91 м над ур. моря [Российская Федерация]

Дополнительная информация

В oтличие oт бoльшинства пoгoдных сайтoв мы публикуем пoдрoбную метеoинфoрмацию в детальнoм прoфессиoнальнoм фoрмате.

Характеристики температуры и влажнoсти вoздуха измеряются на высoте 2 м в тени вдали oт зданий и деревьев.
Скoрoсть ветра измеряется на высoте 10 м (на урoвне рoста челoвека скoрoсть ветра ниже в 1.5-2 раза). Если метеoстанция нахoдится в гoрoде или в лесу, тo скoрoсть ветра занижена на 2-4 м/с пo сравнению с oткрытым местoм. Скoрoсть ветра над акватoриями крупных рек и oзёр, а также на вершинах хoлмoв на 2-5 м/с выше, чем в oбычных услoвиях.
Атмoсфернoе давление в разных тoчках местнoсти мoжет значительнo oтличаться oт давления на метеoстанции, в зависимoсти oт услoвий рельефа (при пoдъёме на 10 м давление пoнижается примернo на 1 мм рт.ст.).